This is the latest recevied weather packets stored in our database for station/object KD9CCP. If no packets are shown the sender has not sent any weather packets the latest 10 day(s).
| Time | Temp. | Humidity | Pressure | Rain* | Wind** | Luminosity | Snow |
|---|---|---|---|---|---|---|---|
| 1777854414 | 15° C | 37% | 1005.1 hPa | 0 mm | - | 5 W/m² | - |
| 1777854111 | 15° C | 35% | 1004.9 hPa | 0 mm | - | 5 W/m² | - |
| 1777853809 | 15.56° C | 36% | 1005 hPa | 0 mm | - | 6 W/m² | - |
| 1777853505 | 15.56° C | 35% | 1004.9 hPa | 0 mm | - | 8 W/m² | - |
| 1777853202 | 15.56° C | 38% | 1004.7 hPa | 0 mm | - | 8 W/m² | - |
| 1777852899 | 15.56° C | 36% | 1004.6 hPa | 0 mm | - | 9 W/m² | - |
| 1777852597 | 16.11° C | 37% | 1004.5 hPa | 0 mm | - | 9 W/m² | - |
| 1777852294 | 16.11° C | 37% | 1004.5 hPa | 0 mm | - | 10 W/m² | - |
| 1777851992 | 16.11° C | 38% | 1004.3 hPa | 0 mm | - | 10 W/m² | - |
| 1777851690 | 16.67° C | 39% | 1004.6 hPa | 0 mm | - | 11 W/m² | - |
| 1777851387 | 16.67° C | 38% | 1004.5 hPa | 0 mm | - | 12 W/m² | - |
| 1777851082 | 16.67° C | 39% | 1004.3 hPa | 0 mm | - | 12 W/m² | - |
| 1777850779 | 16.67° C | 39% | 1004 hPa | 0 mm | - | 13 W/m² | - |
| 1777850477 | 17.22° C | 39% | 1004 hPa | 0 mm | - | 14 W/m² | - |
| 1777850175 | 17.22° C | 35% | 1004.1 hPa | 0 mm | - | 14 W/m² | - |
| 1777849871 | 17.22° C | 35% | 1004.1 hPa | 0 mm | - | 16 W/m² | - |
| 1777849568 | 17.22° C | 34% | 1004.1 hPa | 0 mm | - | 15 W/m² | - |
| 1777849265 | 17.22° C | 34% | 1004 hPa | 0 mm | - | 17 W/m² | - |
| 1777848962 | 17.78° C | 34% | 1003.9 hPa | 0 mm | - | 18 W/m² | - |
| 1777848657 | 17.78° C | 33% | 1003.9 hPa | 0 mm | - | 16 W/m² | - |
| 1777848355 | 17.78° C | 33% | 1004 hPa | 0 mm | - | 17 W/m² | - |
| 1777848053 | 17.78° C | 34% | 1004 hPa | 0 mm | - | 18 W/m² | - |
| 1777847750 | 17.78° C | 31% | 1003.9 hPa | 0 mm | - | 19 W/m² | - |
| 1777847445 | 17.78° C | 33% | 1003.8 hPa | 0 mm | - | 20 W/m² | - |
| 1777847144 | 18.33° C | 33% | 1003.8 hPa | 0 mm | - | 21 W/m² | - |
* Rain latest hour (hover to see other rain measurements)
** Current wind speed in m/s (hover to see current wind gust speed)